HULIANWANG DIGUI-137

导读 | 豆包AI

**HULIANWANG DIGUI-137卫星摘要** HULIANWANG DIGUI-137是中国于2026年1月13日发射的卫星。作为中国低轨卫星互联网星座建设中的一环,该卫星主要承担技术验证与通信服务拓展任务,旨在推动全球覆盖的高速卫星网络部署,助力天地一体化信息网络建设,满足偏远地区通信、物联网接入等多元化需求。

Basic Information
目录编号:
67435
目录名称:
HULIANWANG DIGUI-137
国际标识:
2026-007A
轨道中心:
EARTH
卫星名称:
HULIANWANG DIGUI-137
卫星全名:
HULIANWANG DIGUI-137
卫星状态:
在轨 (已飞行81 天)
发射日期:
2026-01-13 UTC
国别 :
中国 (CN)
星等 :
--
Orbit Information
数据来源 国际轨道数据 AOE轨道数据
星历时间 2026-04-04T05:05:09+0800
4小时前
查看轨道信息
2026-03-31T20:00:00+0800
3天前
查看轨道信息
半长轴 7527.437km 7527.44km
偏心率 0.0000319 0.0000201
轨道倾角 50.011° 50.010°
近地点辐角 101.880° 131.413°
升交点赤经 352.339° 4.455°
平近点角 258.211° 250.221°
近地点 1149.059km 1149.151km
远地点 1149.541km 1149.455km
周期 108.325分钟 108.325分钟
每日圈数 13.29328 13.293272
Detailed Information
使用方式:
暂无
2D Orbit Map
3D Orbit Map
Orbit Altitude Analysis Chart
Orbit Inclination Analysis Chart
Orbit Comprehensive Analysis Chart
View Comprehensive Chart